Weather History for KBFM - November, 2012

Change the Weather History Date:

Saturday, November 17, 2012

  Actual Average Record
Temperature  
Mean Temperature 52 °F -  
Max Temperature 66 °F 67 °F 81 °F (2013)
Min Temperature 39 °F 48 °F 35 °F (1997)
Degree Days  
Heating Degree Days 12    
Growing Degree Days 2 (Base 50)    
Moisture  
Dew Point 41 °F    
Average Humidity 68    
Maximum Humidity 96    
Minimum Humidity 41    
Precipitation  
Precipitation 0.00 in - - ()
Sea Level Pressure  
Sea Level Pressure 30.31 in    
Wind  
Wind Speed 7 mph (North)    
Max Wind Speed 13 mph    
Max Gust Speed -    
Visibility 10 miles    
Events      
Averages and records for this station are not official NWS values.
T = Trace of Precipitation, MM = Missing Value Source: NWS Daily Summary

Daily Weather History Graph

Daily Weather History Graph

Search for Another Location

Airport or City:

Trip Planner

Search our weather history database for the weather conditions in past years. The results will help you decide how hot, cold, wet, or windy it might be!

Date:

Astronomy

Nov. 17, 2012 Rise Set
Actual Time 6:20 AM CST 4:53 PM CST
Civil Twilight 5:54 AM CST 5:19 PM CST
Nautical Twilight 5:25 AM CST 5:48 PM CST
Astronomical Twilight 4:57 AM CST 6:17 PM CST
Moon 10:04 AM CST (11/17) 9:02 PM CST (11/17)
Length of Visible Light 11h 24m
Length of Day
10h 33m
Waxing Crescent, 20% of the Moon is Illuminated
Nov 17
Waxing Crescent
Nov 20
First Quarter
Nov 28
Full
Dec 6
Last Quarter
Dec 13
New

Hourly Weather History & Observations

Time (CST) Temp. Windchill Dew Point Humidity Pressure Visibility Wind Dir Wind Speed Gust Speed Precip Events Conditions
12:53 AM 45.0 °F 41.8 °F 43.0 °F 93% 30.30 in 10.0 mi NW 5.8 mph - N/A   Clear
1:53 AM 45.0 °F 42.6 °F 42.1 °F 90% 30.29 in 10.0 mi NW 4.6 mph - N/A   Clear
2:53 AM 44.1 °F 41.5 °F 42.1 °F 93% 30.30 in 9.0 mi NW 4.6 mph - N/A   Clear
3:53 AM 41.0 °F 38.0 °F 39.9 °F 96% 30.30 in 8.0 mi NNW 4.6 mph - N/A   Clear
4:53 AM 41.0 °F 37.1 °F 39.0 °F 93% 30.31 in 9.0 mi NNW 5.8 mph - N/A   Clear
5:53 AM 39.0 °F 34.8 °F 37.9 °F 96% 30.32 in 6.0 mi NW 5.8 mph - N/A   Clear
6:53 AM 41.0 °F 38.0 °F 39.9 °F 96% 30.34 in 6.0 mi NW 4.6 mph - N/A   Clear
7:53 AM 50.0 °F - 45.0 °F 83% 30.36 in 10.0 mi NNE 8.1 mph - N/A   Clear
8:53 AM 52.0 °F - 45.0 °F 77% 30.37 in 10.0 mi NNE 9.2 mph - N/A   Clear
9:53 AM 57.0 °F - 46.0 °F 67% 30.37 in 10.0 mi NNE 9.2 mph - N/A   Clear
10:53 AM 61.0 °F - 44.1 °F 54% 30.36 in 10.0 mi NE 10.4 mph - N/A   Partly Cloudy
11:53 AM 61.0 °F - 43.0 °F 52% 30.32 in 10.0 mi NE 8.1 mph - N/A   Partly Cloudy
12:53 PM 64.0 °F - 42.1 °F 45% 30.29 in 10.0 mi North 12.7 mph - N/A   Clear
1:53 PM 66.0 °F - 42.1 °F 42% 30.27 in 10.0 mi North 10.4 mph - N/A   Clear
2:53 PM 64.9 °F - 41.0 °F 42% 30.27 in 10.0 mi NNE 12.7 mph - N/A   Clear
3:53 PM 64.0 °F - 39.9 °F 41% 30.27 in 10.0 mi NNE 12.7 mph - N/A   Clear
4:53 PM 60.1 °F - 39.0 °F 46% 30.28 in 10.0 mi North 6.9 mph - N/A   Clear
5:53 PM 53.1 °F - 39.0 °F 59% 30.30 in 10.0 mi North 8.1 mph - N/A   Clear
6:53 PM 57.9 °F - 41.0 °F 53% 30.31 in 10.0 mi NNE 9.2 mph - N/A   Clear
7:53 PM 57.0 °F - 42.1 °F 57% 30.32 in 10.0 mi NNE 9.2 mph - N/A   Clear
8:53 PM 55.9 °F - 42.1 °F 60% 30.32 in 10.0 mi NE 10.4 mph - N/A   Clear
9:53 PM 55.0 °F - 39.9 °F 57% 30.33 in 10.0 mi NE 8.1 mph - N/A   Clear
10:53 PM 54.0 °F - 39.9 °F 59% 30.32 in 10.0 mi NE 6.9 mph - N/A   Clear
11:53 PM 45.0 °F 41.2 °F 39.0 °F 80% 30.32 in 10.0 mi NNW 6.9 mph - N/A   Clear